Time,TemperatureF,DewpointF,PressureIn,WindDirection,WindDirectionDegrees,WindSpeedMPH,WindSpeedGustMPH,Humidity,HourlyPrecipIn,Conditions,Clouds,dailyrainin,SoftwareType,DateUTC
2013-06-18 00:01:00,58.0,52.2,30.30,NNW,338,0.0,0.2,81,0.00,,,0.00,WUHU216HW,2013-06-18 07:01:00,
2013-06-18 00:06:00,58.0,52.2,30.30,NNW,338,0.0,0.0,81,0.00,,,0.00,WUHU216HW,2013-06-18 07:06:00,
2013-06-18 00:11:00,58.0,52.2,30.30,NNW,338,0.0,0.0,81,0.00,,,0.00,WUHU216HW,2013-06-18 07:11:00,
2013-06-18 00:16:00,58.0,52.2,30.30,NNW,338,0.0,0.0,81,0.00,,,0.00,WUHU216HW,2013-06-18 07:16:00,
2013-06-18 00:21:00,58.1,52.4,30.30,NNW,338,0.0,0.0,81,0.00,,,0.00,WUHU216HW,2013-06-18 07:21:00,
2013-06-18 00:26:00,58.1,52.4,30.30,NNW,338,0.0,0.0,81,0.00,,,0.00,WUHU216HW,2013-06-18 07:26:00,
2013-06-18 00:31:00,58.0,52.2,30.30,NNW,338,0.0,0.0,81,0.00,,,0.00,WUHU216HW,2013-06-18 07:31:00,
2013-06-18 00:36:00,58.0,52.5,30.30,NNW,338,0.0,0.0,82,0.00,,,0.00,WUHU216HW,2013-06-18 07:36:00,
2013-06-18 00:41:00,58.0,52.5,30.30,NNW,338,0.0,0.0,82,0.00,,,0.00,WUHU216HW,2013-06-18 07:41:00,
2013-06-18 00:46:00,58.0,52.8,30.30,NNW,338,0.0,0.0,83,0.00,,,0.00,WUHU216HW,2013-06-18 07:46:00,
2013-06-18 00:51:00,58.0,52.8,30.29,NNW,338,0.2,0.7,83,0.00,,,0.00,WUHU216HW,2013-06-18 07:51:00,
2013-06-18 00:56:00,58.0,52.8,30.30,NNW,338,0.0,0.7,83,0.00,,,0.00,WUHU216HW,2013-06-18 07:56:00,
2013-06-18 01:01:00,58.0,52.8,30.30,NNW,338,0.0,0.0,83,0.00,,,0.00,WUHU216HW,2013-06-18 08:01:00,
2013-06-18 01:06:00,58.0,52.8,30.30,NNW,338,0.0,0.0,83,0.00,,,0.00,WUHU216HW,2013-06-18 08:06:00,
2013-06-18 01:11:00,58.0,52.8,30.30,NNW,338,0.0,0.0,83,0.00,,,0.00,WUHU216HW,2013-06-18 08:11:00,
2013-06-18 01:16:00,58.1,53.0,30.30,NNW,338,0.0,0.2,83,0.00,,,0.00,WUHU216HW,2013-06-18 08:16:00,
2013-06-18 01:21:00,58.1,53.0,30.30,West,270,0.7,0.7,83,0.00,,,0.00,WUHU216HW,2013-06-18 08:21:00,
2013-06-18 01:26:00,58.1,53.0,30.30,West,270,0.0,0.7,83,0.00,,,0.00,WUHU216HW,2013-06-18 08:26:00,
2013-06-18 01:31:00,58.1,53.0,30.29,WNW,293,0.0,0.9,83,0.00,,,0.00,WUHU216HW,2013-06-18 08:31:00,
2013-06-18 01:36:00,58.3,53.2,30.29,SSE,158,0.0,1.1,83,0.00,,,0.00,WUHU216HW,2013-06-18 08:36:00,
2013-06-18 01:41:00,58.3,53.2,30.29,SSE,158,0.0,1.1,83,0.00,,,0.00,WUHU216HW,2013-06-18 08:41:00,
2013-06-18 01:46:00,58.3,53.2,30.29,SSE,158,0.4,0.4,83,0.00,,,0.00,WUHU216HW,2013-06-18 08:46:00,
2013-06-18 01:51:00,58.3,53.2,30.29,SSE,158,0.0,0.4,83,0.00,,,0.00,WUHU216HW,2013-06-18 08:51:00,
2013-06-18 01:56:00,58.1,53.0,30.29,SSE,158,0.0,0.0,83,0.00,,,0.00,WUHU216HW,2013-06-18 08:56:00,
2013-06-18 02:01:00,58.1,53.3,30.29,SSE,158,0.0,0.2,84,0.00,,,0.00,WUHU216HW,2013-06-18 09:01:00,
2013-06-18 02:06:00,58.0,52.8,30.29,SSE,158,0.0,0.2,83,0.00,,,0.00,WUHU216HW,2013-06-18 09:06:00,
2013-06-18 02:11:00,58.0,52.8,30.28,SSE,158,0.0,0.0,83,0.00,,,0.00,WUHU216HW,2013-06-18 09:11:00,
2013-06-18 02:16:00,58.0,52.8,30.28,SSE,158,0.0,0.0,83,0.00,,,0.00,WUHU216HW,2013-06-18 09:16:00,
2013-06-18 02:21:00,58.0,52.8,30.29,SSE,158,0.0,0.0,83,0.00,,,0.00,WUHU216HW,2013-06-18 09:21:00,
2013-06-18 02:26:00,58.0,52.8,30.28,SE,135,0.0,0.0,83,0.00,,,0.00,WUHU216HW,2013-06-18 09:26:00,
2013-06-18 02:31:00,58.0,52.8,30.29,ENE,68,0.0,0.2,83,0.00,,,0.00,WUHU216HW,2013-06-18 09:31:00,
2013-06-18 02:36:00,58.0,52.8,30.28,ENE,68,0.0,0.2,83,0.00,,,0.00,WUHU216HW,2013-06-18 09:36:00,
2013-06-18 02:41:00,58.0,52.8,30.28,NNE,23,0.0,0.4,83,0.00,,,0.00,WUHU216HW,2013-06-18 09:41:00,
2013-06-18 02:46:00,57.8,52.7,30.28,NNE,23,0.0,0.4,83,0.00,,,0.00,WUHU216HW,2013-06-18 09:46:00,
2013-06-18 02:51:00,57.6,52.7,30.28,WNW,293,0.0,0.4,84,0.00,,,0.00,WUHU216HW,2013-06-18 09:51:00,
2013-06-18 02:56:00,57.4,52.6,30.28,NW,315,0.0,0.4,84,0.00,,,0.00,WUHU216HW,2013-06-18 09:56:00,
2013-06-18 03:01:00,57.2,52.4,30.29,NW,315,0.0,0.4,84,0.00,,,0.00,WUHU216HW,2013-06-18 10:01:00,
2013-06-18 03:06:00,57.1,52.2,30.29,NW,315,0.0,0.2,84,0.00,,,0.00,WUHU216HW,2013-06-18 10:06:00,
2013-06-18 03:11:00,56.9,52.0,30.29,NW,315,0.4,0.7,84,0.00,,,0.00,WUHU216HW,2013-06-18 10:11:00,
2013-06-18 03:16:00,56.9,52.0,30.29,NW,315,0.0,0.7,84,0.00,,,0.00,WUHU216HW,2013-06-18 10:16:00,
2013-06-18 03:21:00,56.9,52.0,30.29,NW,315,0.0,0.4,84,0.00,,,0.00,WUHU216HW,2013-06-18 10:21:00,
2013-06-18 03:26:00,56.9,52.0,30.29,NW,315,0.0,0.0,84,0.00,,,0.00,WUHU216HW,2013-06-18 10:26:00,
2013-06-18 03:31:00,56.9,52.4,30.29,NW,315,0.0,0.2,85,0.00,,,0.00,WUHU216HW,2013-06-18 10:31:00,
2013-06-18 03:36:00,57.1,52.2,30.28,NW,315,0.0,0.2,84,0.00,,,0.00,WUHU216HW,2013-06-18 10:36:00,
2013-06-18 03:41:00,57.2,52.7,30.28,NW,315,0.0,0.0,85,0.00,,,0.00,WUHU216HW,2013-06-18 10:41:00,
2013-06-18 03:46:00,57.2,52.7,30.29,NW,315,0.0,0.0,85,0.00,,,0.00,WUHU216HW,2013-06-18 10:46:00,
2013-06-18 03:51:00,57.4,52.6,30.29,NW,315,0.0,0.0,84,0.00,,,0.00,WUHU216HW,2013-06-18 10:51:00,
2013-06-18 03:56:00,57.6,52.7,30.29,NW,315,0.0,0.0,84,0.00,,,0.00,WUHU216HW,2013-06-18 10:56:00,
2013-06-18 04:01:00,57.6,52.7,30.29,NW,315,0.0,0.0,84,0.00,,,0.00,WUHU216HW,2013-06-18 11:01:00,
2013-06-18 04:06:00,57.8,52.9,30.29,NW,315,0.0,0.0,84,0.00,,,0.00,WUHU216HW,2013-06-18 11:06:00,
2013-06-18 04:11:00,57.8,52.9,30.29,NW,315,0.0,0.0,84,0.00,,,0.00,WUHU216HW,2013-06-18 11:11:00,
2013-06-18 04:16:00,57.8,52.9,30.29,NW,315,0.0,0.0,84,0.00,,,0.00,WUHU216HW,2013-06-18 11:16:00,
2013-06-18 04:21:00,57.6,52.7,30.28,NW,315,0.0,0.7,84,0.00,,,0.00,WUHU216HW,2013-06-18 11:21:00,
2013-06-18 04:26:00,57.6,52.7,30.29,NW,315,0.0,0.7,84,0.00,,,0.00,WUHU216HW,2013-06-18 11:26:00,
2013-06-18 04:31:00,57.2,52.4,30.29,NW,315,0.0,0.0,84,0.00,,,0.00,WUHU216HW,2013-06-18 11:31:00,
2013-06-18 04:36:00,57.2,52.7,30.29,NW,315,0.0,0.0,85,0.00,,,0.00,WUHU216HW,2013-06-18 11:36:00,
2013-06-18 04:41:00,57.2,52.7,30.29,NW,315,0.0,0.0,85,0.00,,,0.00,WUHU216HW,2013-06-18 11:41:00,
2013-06-18 04:46:00,57.4,52.9,30.29,NW,315,0.0,0.0,85,0.00,,,0.00,WUHU216HW,2013-06-18 11:46:00,
2013-06-18 04:51:00,57.4,52.6,30.29,NW,315,0.0,0.0,84,0.00,,,0.00,WUHU216HW,2013-06-18 11:51:00,
2013-06-18 04:56:00,57.4,52.6,30.29,NW,315,0.0,0.0,84,0.00,,,0.00,WUHU216HW,2013-06-18 11:56:00,
2013-06-18 05:01:00,57.6,52.7,30.29,NW,315,0.0,0.0,84,0.00,,,0.00,WUHU216HW,2013-06-18 12:01:00,
2013-06-18 05:06:00,57.4,52.6,30.29,NW,315,0.0,0.0,84,0.00,,,0.00,WUHU216HW,2013-06-18 12:06:00,
2013-06-18 05:11:00,57.2,52.4,30.29,WNW,293,0.4,0.4,84,0.00,,,0.00,WUHU216HW,2013-06-18 12:11:00,
2013-06-18 05:16:00,57.2,52.4,30.29,WNW,293,0.0,0.4,84,0.00,,,0.00,WUHU216HW,2013-06-18 12:16:00,
2013-06-18 05:21:00,57.1,52.2,30.29,WNW,293,0.0,0.0,84,0.00,,,0.00,WUHU216HW,2013-06-18 12:21:00,
2013-06-18 05:26:00,56.9,52.0,30.29,WNW,293,0.0,0.0,84,0.00,,,0.00,WUHU216HW,2013-06-18 12:26:00,
2013-06-18 05:31:00,56.9,52.0,30.29,WNW,293,0.0,0.0,84,0.00,,,0.00,WUHU216HW,2013-06-18 12:31:00,
2013-06-18 05:36:00,56.9,52.0,30.29,West,270,0.0,0.4,84,0.00,,,0.00,WUHU216HW,2013-06-18 12:36:00,
2013-06-18 05:41:00,57.1,52.6,30.29,SSW,203,0.0,1.3,85,0.00,,,0.00,WUHU216HW,2013-06-18 12:41:00,
2013-06-18 05:46:00,57.2,52.7,30.29,SW,225,0.0,1.3,85,0.00,,,0.00,WUHU216HW,2013-06-18 12:46:00,
2013-06-18 05:51:00,57.2,52.4,30.29,SW,225,0.0,1.1,84,0.00,,,0.00,WUHU216HW,2013-06-18 12:51:00,
2013-06-18 05:56:00,57.2,52.4,30.29,WSW,248,0.0,0.4,84,0.00,,,0.00,WUHU216HW,2013-06-18 12:56:00,
2013-06-18 06:01:00,57.4,52.6,30.29,SSW,203,0.0,0.4,84,0.00,,,0.00,WUHU216HW,2013-06-18 13:01:00,
2013-06-18 06:06:00,57.4,52.6,30.29,SSW,203,0.0,0.2,84,0.00,,,0.00,WUHU216HW,2013-06-18 13:06:00,
2013-06-18 06:11:00,57.6,52.7,30.29,West,270,0.0,0.4,84,0.00,,,0.00,WUHU216HW,2013-06-18 13:11:00,
2013-06-18 06:16:00,57.6,52.7,30.29,West,270,0.0,0.4,84,0.00,,,0.00,WUHU216HW,2013-06-18 13:16:00,
2013-06-18 06:21:00,57.6,52.7,30.29,West,270,0.0,0.0,84,0.00,,,0.00,WUHU216HW,2013-06-18 13:21:00,
2013-06-18 06:26:00,57.6,52.7,30.29,West,270,0.0,0.0,84,0.00,,,0.00,WUHU216HW,2013-06-18 13:26:00,
2013-06-18 06:31:00,57.6,52.7,30.29,West,270,0.0,0.0,84,0.00,,,0.00,WUHU216HW,2013-06-18 13:31:00,
2013-06-18 06:36:00,57.8,52.9,30.29,West,270,0.0,0.0,84,0.00,,,0.00,WUHU216HW,2013-06-18 13:36:00,
2013-06-18 06:41:00,57.8,52.9,30.29,West,270,0.9,0.9,84,0.00,,,0.00,WUHU216HW,2013-06-18 13:41:00,
2013-06-18 06:46:00,58.0,52.8,30.29,West,270,0.0,1.1,83,0.00,,,0.00,WUHU216HW,2013-06-18 13:46:00,
2013-06-18 06:51:00,58.0,52.8,30.29,South,180,0.7,1.1,83,0.00,,,0.00,WUHU216HW,2013-06-18 13:51:00,
2013-06-18 06:56:00,58.0,52.5,30.29,South,180,0.0,0.7,82,0.00,,,0.00,WUHU216HW,2013-06-18 13:56:00,
2013-06-18 07:01:00,58.1,52.7,30.29,SSW,203,0.0,0.4,82,0.00,,,0.00,WUHU216HW,2013-06-18 14:01:00,
2013-06-18 07:06:00,58.1,52.7,30.29,WSW,248,0.2,1.1,82,0.00,,,0.00,WUHU216HW,2013-06-18 14:06:00,
2013-06-18 07:11:00,58.1,52.7,30.29,WSW,248,0.0,1.1,82,0.00,,,0.00,WUHU216HW,2013-06-18 14:11:00,
2013-06-18 07:16:00,58.0,52.5,30.29,WSW,248,0.0,0.0,82,0.00,,,0.00,WUHU216HW,2013-06-18 14:16:00,
2013-06-18 07:21:00,58.0,52.5,30.29,WSW,248,0.0,0.0,82,0.00,,,0.00,WUHU216HW,2013-06-18 14:21:00,
2013-06-18 07:26:00,58.0,52.5,30.29,South,180,1.3,1.8,82,0.00,,,0.00,WUHU216HW,2013-06-18 14:26:00,
2013-06-18 07:31:00,58.0,52.5,30.29,South,180,0.0,1.8,82,0.00,,,0.00,WUHU216HW,2013-06-18 14:31:00,
2013-06-18 07:36:00,58.0,52.5,30.29,WSW,248,0.4,0.4,82,0.00,,,0.00,WUHU216HW,2013-06-18 14:36:00,
2013-06-18 07:41:00,58.0,52.5,30.29,WSW,248,0.0,0.4,82,0.00,,,0.00,WUHU216HW,2013-06-18 14:41:00,
2013-06-18 07:46:00,57.8,52.3,30.29,SW,225,0.0,1.1,82,0.00,,,0.00,WUHU216HW,2013-06-18 14:46:00,
2013-06-18 07:51:00,58.0,52.5,30.29,West,270,0.0,1.1,82,0.00,,,0.00,WUHU216HW,2013-06-18 14:51:00,
2013-06-18 07:56:00,58.0,52.5,30.29,West,270,0.0,0.2,82,0.00,,,0.00,WUHU216HW,2013-06-18 14:56:00,
2013-06-18 08:01:00,58.1,52.7,30.29,NNW,338,0.0,0.4,82,0.00,,,0.00,WUHU216HW,2013-06-18 15:01:00,
2013-06-18 08:06:00,58.1,52.4,30.28,WNW,293,0.0,0.4,81,0.00,,,0.00,WUHU216HW,2013-06-18 15:06:00,
2013-06-18 08:11:00,58.3,52.6,30.29,WNW,293,0.0,0.4,81,0.00,,,0.00,WUHU216HW,2013-06-18 15:11:00,
2013-06-18 08:16:00,58.3,52.6,30.29,WNW,293,0.0,0.0,81,0.00,,,0.00,WUHU216HW,2013-06-18 15:16:00,
2013-06-18 08:21:00,58.3,52.6,30.29,WNW,293,0.0,0.0,81,0.00,,,0.00,WUHU216HW,2013-06-18 15:21:00,
2013-06-18 08:26:00,58.3,52.6,30.28,WNW,293,0.0,0.0,81,0.00,,,0.00,WUHU216HW,2013-06-18 15:26:00,
2013-06-18 08:31:00,58.3,52.6,30.28,WNW,293,0.0,0.0,81,0.00,,,0.00,WUHU216HW,2013-06-18 15:31:00,
2013-06-18 08:36:00,58.5,53.0,30.28,WNW,293,0.0,0.0,82,0.00,,,0.00,WUHU216HW,2013-06-18 15:36:00,
2013-06-18 08:41:00,58.5,53.0,30.28,WNW,293,0.0,0.0,82,0.00,,,0.00,WUHU216HW,2013-06-18 15:41:00,
2013-06-18 08:46:00,58.5,52.8,30.28,West,270,0.0,0.0,81,0.00,,,0.00,WUHU216HW,2013-06-18 15:46:00,
2013-06-18 08:51:00,58.7,52.9,30.29,SSW,203,0.2,0.4,81,0.00,,,0.00,WUHU216HW,2013-06-18 15:51:00,
2013-06-18 08:56:00,58.9,52.7,30.28,SSW,203,0.4,2.2,80,0.00,,,0.00,WUHU216HW,2013-06-18 15:56:00,
2013-06-18 09:01:00,59.2,52.4,30.28,SE,135,1.8,2.2,78,0.00,,,0.00,WUHU216HW,2013-06-18 16:01:00,
2013-06-18 09:06:00,59.4,51.8,30.28,SE,135,0.4,3.4,76,0.00,,,0.00,WUHU216HW,2013-06-18 16:06:00,
2013-06-18 09:11:00,59.6,51.7,30.28,South,180,1.1,3.4,75,0.00,,,0.00,WUHU216HW,2013-06-18 16:11:00,
2013-06-18 09:16:00,59.8,51.8,30.28,SSE,158,0.4,1.8,75,0.00,,,0.00,WUHU216HW,2013-06-18 16:16:00,
2013-06-18 09:21:00,60.1,51.8,30.28,SSW,203,2.5,2.5,74,0.00,,,0.00,WUHU216HW,2013-06-18 16:21:00,
2013-06-18 09:26:00,60.3,52.0,30.28,SW,225,1.8,2.5,74,0.00,,,0.00,WUHU216HW,2013-06-18 16:26:00,
2013-06-18 09:31:00,60.8,52.2,30.28,NW,315,0.7,1.8,73,0.00,,,0.00,WUHU216HW,2013-06-18 16:31:00,
2013-06-18 09:36:00,61.0,51.7,30.28,SE,135,0.4,2.5,71,0.00,,,0.00,WUHU216HW,2013-06-18 16:36:00,
2013-06-18 09:41:00,61.4,51.9,30.28,South,180,2.5,2.5,71,0.00,,,0.00,WUHU216HW,2013-06-18 16:41:00,
2013-06-18 09:46:00,61.7,51.9,30.27,South,180,4.7,4.7,70,0.00,,,0.00,WUHU216HW,2013-06-18 16:46:00,
2013-06-18 09:51:00,62.1,52.7,30.27,South,180,0.4,4.7,71,0.00,,,0.00,WUHU216HW,2013-06-18 16:51:00,
2013-06-18 09:56:00,62.3,52.0,30.27,WSW,248,4.0,4.0,69,0.00,,,0.00,WUHU216HW,2013-06-18 16:56:00,
2013-06-18 10:01:00,62.5,52.2,30.27,SSW,203,1.1,4.0,69,0.00,,,0.00,WUHU216HW,2013-06-18 17:01:00,
2013-06-18 10:06:00,62.6,51.5,30.27,SE,135,0.2,2.5,67,0.00,,,0.00,WUHU216HW,2013-06-18 17:06:00,
2013-06-18 10:11:00,63.0,52.3,30.27,SSW,203,1.3,1.3,68,0.00,,,0.00,WUHU216HW,2013-06-18 17:11:00,
2013-06-18 10:15:00,63.4,51.4,30.27,SSW,203,0.7,2.5,65,0.00,,,0.00,WUHU216HW,2013-06-18 17:15:00,
2013-06-18 10:20:00,63.7,50.9,30.27,SW,225,1.1,2.9,63,0.00,,,0.00,WUHU216HW,2013-06-18 17:20:00,
2013-06-18 10:25:00,63.4,51.4,30.27,SW,225,0.7,4.0,65,0.00,,,0.00,WUHU216HW,2013-06-18 17:25:00,
2013-06-18 10:30:00,63.2,51.2,30.27,SSW,203,0.7,4.0,65,0.00,,,0.00,WUHU216HW,2013-06-18 17:30:00,
2013-06-18 10:35:00,63.0,50.6,30.27,SSW,203,3.4,4.5,64,0.00,,,0.00,WUHU216HW,2013-06-18 17:35:00,
2013-06-18 10:40:00,63.0,51.0,30.27,South,180,0.0,4.5,65,0.00,,,0.00,WUHU216HW,2013-06-18 17:40:00,
2013-06-18 10:45:00,63.0,51.0,30.26,SSE,158,1.8,2.5,65,0.00,,,0.00,WUHU216HW,2013-06-18 17:45:00,
2013-06-18 10:50:00,63.0,50.6,30.26,SSW,203,2.0,2.5,64,0.00,,,0.00,WUHU216HW,2013-06-18 17:50:00,
2013-06-18 10:55:00,63.4,51.0,30.27,SSE,158,1.8,2.5,64,0.00,,,0.00,WUHU216HW,2013-06-18 17:55:00,
2013-06-18 11:00:00,63.7,50.4,30.27,WSW,248,1.3,2.5,62,0.00,,,0.00,WUHU216HW,2013-06-18 18:00:00,
2013-06-18 11:05:00,63.9,50.6,30.26,East,90,0.9,3.8,62,0.00,,,0.00,WUHU216HW,2013-06-18 18:05:00,
2013-06-18 11:10:00,63.9,50.6,30.27,WSW,248,1.1,3.8,62,0.00,,,0.00,WUHU216HW,2013-06-18 18:10:00,
2013-06-18 11:15:00,63.7,50.4,30.26,South,180,2.2,3.6,62,0.00,,,0.00,WUHU216HW,2013-06-18 18:15:00,
2013-06-18 11:20:00,63.9,50.6,30.26,SE,135,1.1,2.2,62,0.00,,,0.00,WUHU216HW,2013-06-18 18:20:00,
2013-06-18 11:25:00,63.9,50.6,30.26,SSE,158,2.2,2.2,62,0.00,,,0.00,WUHU216HW,2013-06-18 18:25:00,
2013-06-18 11:30:00,64.4,50.7,30.26,SSW,203,2.5,4.0,61,0.00,,,0.00,WUHU216HW,2013-06-18 18:30:00,
2013-06-18 11:35:00,64.6,50.9,30.26,South,180,1.8,4.0,61,0.00,,,0.00,WUHU216HW,2013-06-18 18:35:00,
2013-06-18 11:40:00,65.0,50.8,30.26,SE,135,0.4,2.2,60,0.00,,,0.00,WUHU216HW,2013-06-18 18:40:00,
2013-06-18 11:45:00,65.2,50.5,30.26,SSE,158,2.0,2.2,59,0.00,,,0.00,WUHU216HW,2013-06-18 18:45:00,
2013-06-18 11:50:00,65.3,51.6,30.26,SSW,203,2.0,2.2,61,0.00,,,0.00,WUHU216HW,2013-06-18 18:50:00,
2013-06-18 11:55:00,65.5,50.3,30.26,SSW,203,3.1,3.1,58,0.00,,,0.00,WUHU216HW,2013-06-18 18:55:00,
2013-06-18 12:00:00,65.7,51.5,30.26,South,180,0.9,3.8,60,0.00,,,0.00,WUHU216HW,2013-06-18 19:00:00,
2013-06-18 12:05:00,65.7,51.0,30.26,South,180,0.2,3.8,59,0.00,,,0.00,WUHU216HW,2013-06-18 19:05:00,
2013-06-18 12:10:00,65.9,51.2,30.26,WSW,248,1.6,2.0,59,0.00,,,0.00,WUHU216HW,2013-06-18 19:10:00,
2013-06-18 12:15:00,66.1,50.4,30.26,SSE,158,2.0,2.0,57,0.00,,,0.00,WUHU216HW,2013-06-18 19:15:00,
2013-06-18 12:20:00,66.2,51.0,30.26,SSW,203,1.1,3.8,58,0.00,,,0.00,WUHU216HW,2013-06-18 19:20:00,
2013-06-18 12:25:00,66.6,51.4,30.26,SSE,158,1.8,3.8,58,0.00,,,0.00,WUHU216HW,2013-06-18 19:25:00,
2013-06-18 12:30:00,66.6,50.9,30.25,SSE,158,1.3,2.7,57,0.00,,,0.00,WUHU216HW,2013-06-18 19:30:00,
2013-06-18 12:35:00,67.1,50.9,30.25,WSW,248,0.9,2.7,56,0.00,,,0.00,WUHU216HW,2013-06-18 19:35:00,
2013-06-18 12:40:00,67.9,51.6,30.25,SSW,203,0.0,2.7,56,0.00,,,0.00,WUHU216HW,2013-06-18 19:40:00,
2013-06-18 12:45:00,68.6,51.8,30.25,SSE,158,3.1,3.1,55,0.00,,,0.00,WUHU216HW,2013-06-18 19:45:00,
2013-06-18 12:50:00,68.9,50.1,30.25,SSE,158,1.6,4.7,51,0.00,,,0.00,WUHU216HW,2013-06-18 19:50:00,
2013-06-18 12:55:00,68.4,50.6,30.25,SSW,203,0.9,4.7,53,0.00,,,0.00,WUHU216HW,2013-06-18 19:55:00,
2013-06-18 13:00:00,68.2,49.4,30.25,SSW,203,4.3,4.3,51,0.00,,,0.00,WUHU216HW,2013-06-18 20:00:00,
2013-06-18 13:05:00,68.9,51.1,30.24,SSW,203,1.6,4.3,53,0.00,,,0.00,WUHU216HW,2013-06-18 20:05:00,
2013-06-18 13:10:00,69.7,50.8,30.24,SW,225,0.9,4.7,51,0.00,,,0.00,WUHU216HW,2013-06-18 20:10:00,
2013-06-18 13:15:00,70.2,51.2,30.24,SSE,158,1.1,4.7,51,0.00,,,0.00,WUHU216HW,2013-06-18 20:15:00,
2013-06-18 13:20:00,70.2,51.8,30.24,SSE,158,1.1,3.8,52,0.00,,,0.00,WUHU216HW,2013-06-18 20:20:00,
2013-06-18 13:25:00,70.2,51.8,30.24,SSE,158,1.1,1.8,52,0.00,,,0.00,WUHU216HW,2013-06-18 20:25:00,
2013-06-18 14:00:00,71.6,49.1,30.24,South,180,4.0,4.0,45,0.00,,,0.00,WUHU216HW,2013-06-18 21:00:00,
2013-06-18 14:05:00,71.6,49.1,30.24,South,180,4.0,4.0,45,0.00,,,0.00,WUHU216HW,2013-06-18 21:05:00,
2013-06-18 15:00:00,72.7,48.2,30.23,South,180,0.0,0.0,42,0.00,,,0.00,WUHU216HW,2013-06-18 22:00:00,
2013-06-18 15:05:00,72.4,48.5,30.23,WSW,248,2.0,2.5,43,0.00,,,0.00,WUHU216HW,2013-06-18 22:05:00,
2013-06-18 15:10:00,72.4,48.5,30.23,WSW,248,2.0,2.5,43,0.00,,,0.00,WUHU216HW,2013-06-18 22:10:00,
2013-06-18 16:00:00,72.4,46.7,30.22,SE,135,1.6,1.6,40,0.00,,,0.00,WUHU216HW,2013-06-18 23:00:00,
2013-06-18 16:05:00,72.4,46.7,30.22,SE,135,1.6,1.6,40,0.00,,,0.00,WUHU216HW,2013-06-18 23:05:00,
2013-06-18 17:00:00,70.9,47.3,30.20,South,180,1.3,1.3,43,0.00,,,0.00,WUHU216HW,2013-06-19 00:00:00,
2013-06-18 17:05:00,70.9,44.7,30.20,SW,225,2.0,6.9,39,0.00,,,0.00,WUHU216HW,2013-06-19 00:05:00,
2013-06-18 17:10:00,70.9,46.0,30.20,South,180,1.1,6.9,41,0.00,,,0.00,WUHU216HW,2013-06-19 00:10:00,
2013-06-18 17:15:00,70.7,46.4,30.20,South,180,0.0,3.8,42,0.00,,,0.00,WUHU216HW,2013-06-19 00:15:00,
2013-06-18 17:20:00,70.6,46.3,30.20,NNE,23,0.0,3.4,42,0.00,,,0.00,WUHU216HW,2013-06-19 00:20:00,
2013-06-18 17:24:00,70.2,46.0,30.19,North,0,1.6,1.6,42,0.00,,,0.00,WUHU216HW,2013-06-19 00:24:00,
2013-06-18 17:29:00,70.2,46.0,30.19,North,0,0.0,1.6,42,0.00,,,0.00,WUHU216HW,2013-06-19 00:29:00,
2013-06-18 17:34:00,70.2,46.5,30.19,SSW,203,0.2,1.6,43,0.00,,,0.00,WUHU216HW,2013-06-19 00:34:00,
2013-06-18 17:39:00,70.6,46.9,30.19,SW,225,0.0,3.4,43,0.00,,,0.00,WUHU216HW,2013-06-19 00:39:00,
2013-06-18 17:44:00,70.7,45.9,30.19,North,0,1.8,3.4,41,0.00,,,0.00,WUHU216HW,2013-06-19 00:44:00,
2013-06-18 17:49:00,70.7,45.9,30.19,North,0,0.0,2.5,41,0.00,,,0.00,WUHU216HW,2013-06-19 00:49:00,
2013-06-18 17:54:00,70.9,45.5,30.19,SW,225,0.2,5.1,40,0.00,,,0.00,WUHU216HW,2013-06-19 00:54:00,
2013-06-18 17:59:00,71.1,46.2,30.19,SSW,203,0.4,5.1,41,0.00,,,0.00,WUHU216HW,2013-06-19 00:59:00,
2013-06-18 18:04:00,71.1,45.6,30.19,NNW,338,0.2,3.4,40,0.00,,,0.00,WUHU216HW,2013-06-19 01:04:00,
2013-06-18 18:09:00,71.1,46.2,30.19,NE,45,0.4,2.7,41,0.00,,,0.00,WUHU216HW,2013-06-19 01:09:00,
2013-06-18 18:14:00,71.1,46.2,30.19,WSW,248,0.0,2.7,41,0.00,,,0.00,WUHU216HW,2013-06-19 01:14:00,
2013-06-18 18:19:00,71.1,45.6,30.19,WNW,293,0.7,2.2,40,0.00,,,0.00,WUHU216HW,2013-06-19 01:19:00,
2013-06-18 18:24:00,71.1,45.6,30.19,SE,135,0.4,4.5,40,0.00,,,0.00,WUHU216HW,2013-06-19 01:24:00,
2013-06-18 18:29:00,71.1,46.2,30.19,SE,135,0.0,4.5,41,0.00,,,0.00,WUHU216HW,2013-06-19 01:29:00,
2013-06-18 18:34:00,71.3,46.4,30.20,WNW,293,0.4,2.9,41,0.00,,,0.00,WUHU216HW,2013-06-19 01:34:00,
2013-06-18 18:39:00,71.1,46.2,30.20,WNW,293,0.4,4.7,41,0.00,,,0.00,WUHU216HW,2013-06-19 01:39:00,
2013-06-18 18:44:00,70.9,47.3,30.20,ESE,113,3.8,4.7,43,0.00,,,0.00,WUHU216HW,2013-06-19 01:44:00,
2013-06-18 18:49:00,70.7,46.4,30.20,SSE,158,2.7,4.7,42,0.00,,,0.00,WUHU216HW,2013-06-19 01:49:00,
2013-06-18 18:54:00,70.6,47.5,30.20,WNW,293,0.2,4.7,44,0.00,,,0.00,WUHU216HW,2013-06-19 01:54:00,
2013-06-18 18:59:00,70.6,47.5,30.20,SSW,203,2.5,4.0,44,0.00,,,0.00,WUHU216HW,2013-06-19 01:59:00,
2013-06-18 19:04:00,70.6,47.5,30.20,SSE,158,2.5,3.4,44,0.00,,,0.00,WUHU216HW,2013-06-19 02:04:00,
2013-06-18 19:09:00,70.4,47.4,30.20,SE,135,1.1,3.4,44,0.00,,,0.00,WUHU216HW,2013-06-19 02:09:00,
2013-06-18 19:14:00,70.0,47.6,30.21,WNW,293,1.1,1.8,45,0.00,,,0.00,WUHU216HW,2013-06-19 02:14:00,
2013-06-18 19:19:00,69.7,47.9,30.21,SW,225,0.9,1.8,46,0.00,,,0.00,WUHU216HW,2013-06-19 02:19:00,
2013-06-18 19:24:00,69.7,47.9,30.21,West,270,0.7,1.1,46,0.00,,,0.00,WUHU216HW,2013-06-19 02:24:00,
2013-06-18 19:29:00,69.3,48.2,30.21,WSW,248,1.1,2.5,47,0.00,,,0.00,WUHU216HW,2013-06-19 02:29:00,
2013-06-18 19:34:00,69.1,47.3,30.21,NW,315,0.9,2.5,46,0.00,,,0.00,WUHU216HW,2013-06-19 02:34:00,
2013-06-18 19:39:00,68.9,47.8,30.21,WSW,248,1.8,2.5,47,0.00,,,0.00,WUHU216HW,2013-06-19 02:39:00,
2013-06-18 19:44:00,68.8,47.6,30.21,SSW,203,2.9,2.9,47,0.00,,,0.00,WUHU216HW,2013-06-19 02:44:00,
2013-06-18 19:49:00,68.8,47.1,30.21,SSW,203,2.7,2.9,46,0.00,,,0.00,WUHU216HW,2013-06-19 02:49:00,
2013-06-18 19:54:00,68.4,46.7,30.22,SE,135,3.1,3.1,46,0.00,,,0.00,WUHU216HW,2013-06-19 02:54:00,
2013-06-18 19:59:00,68.2,46.5,30.22,SSE,158,2.5,3.1,46,0.00,,,0.00,WUHU216HW,2013-06-19 02:59:00,
2013-06-18 20:04:00,68.0,46.5,30.22,SSW,203,3.4,3.4,46,0.00,,,0.00,WUHU216HW,2013-06-19 03:04:00,
2013-06-18 20:09:00,68.0,46.5,30.22,SW,225,1.1,3.4,46,0.00,,,0.00,WUHU216HW,2013-06-19 03:09:00,
2013-06-18 20:14:00,67.9,46.3,30.22,SW,225,0.9,3.6,46,0.00,,,0.00,WUHU216HW,2013-06-19 03:14:00,
2013-06-18 20:19:00,67.7,46.7,30.22,WSW,248,2.2,3.6,47,0.00,,,0.00,WUHU216HW,2013-06-19 03:19:00,
2013-06-18 20:24:00,67.5,46.5,30.23,SW,225,1.3,2.9,47,0.00,,,0.00,WUHU216HW,2013-06-19 03:24:00,
2013-06-18 20:29:00,67.1,46.2,30.23,South,180,2.9,2.9,47,0.00,,,0.00,WUHU216HW,2013-06-19 03:29:00,
2013-06-18 20:34:00,67.1,46.8,30.23,NNW,338,0.0,2.9,48,0.00,,,0.00,WUHU216HW,2013-06-19 03:34:00,
2013-06-18 20:39:00,66.8,46.4,30.23,WSW,248,3.4,3.4,48,0.00,,,0.00,WUHU216HW,2013-06-19 03:39:00,
2013-06-18 20:44:00,66.6,46.9,30.24,South,180,0.4,3.4,49,0.00,,,0.00,WUHU216HW,2013-06-19 03:44:00,
2013-06-18 20:49:00,66.4,46.7,30.24,South,180,0.0,1.6,49,0.00,,,0.00,WUHU216HW,2013-06-19 03:49:00,
2013-06-18 20:54:00,66.2,47.2,30.24,SSE,158,0.0,1.6,50,0.00,,,0.00,WUHU216HW,2013-06-19 03:54:00,
2013-06-18 20:59:00,66.2,47.2,30.24,North,0,1.1,2.9,50,0.00,,,0.00,WUHU216HW,2013-06-19 03:59:00,
2013-06-18 21:01:00,66.1,47.4,30.24,SSW,203,0.7,2.9,51,0.00,,,0.00,WUHU216HW,2013-06-19 04:01:00,
2013-06-18 21:06:00,66.1,47.4,30.24,SSW,203,0.7,0.7,51,0.00,,,0.00,WUHU216HW,2013-06-19 04:06:00,
2013-06-18 22:00:00,64.1,49.0,30.25,SSE,158,0.0,0.0,58,0.00,,,0.00,WUHU216HW,2013-06-19 05:00:00,
2013-06-18 22:05:00,64.1,49.0,30.25,SSE,158,0.0,0.0,58,0.00,,,0.00,WUHU216HW,2013-06-19 05:05:00,
2013-06-18 23:00:00,62.1,48.2,30.25,SW,225,0.0,0.0,60,0.00,,,0.00,WUHU216HW,2013-06-19 06:00:00,
2013-06-18 23:05:00,62.1,48.2,30.25,SW,225,0.0,0.0,60,0.00,,,0.00,WUHU216HW,2013-06-19 06:05:00,